User: anonymous   Login
Location: Arezzo
(43.4170°N, 11.8830°E)
Time: 03:34:05
(UTC+02:00)
Language:

STARLINK-2615 - Orbit

View from above orbital plane
View from above orbital plane
View from above satellite
View from above satellite

Ground track
Ground track

The orbit data is extracted from the following two-line orbital elements,

1 48678C 21044AS  21270.84251858  .00002796  00000-0  18731-3 0  2706
2 48678  53.0546 201.3367 0001833  67.3218  26.6202 15.06395507    12
Epoch (UTC): 27 September 2021 20:13:13
Eccentricity: 0.0001833
inclination: 53.0546°
perigee height: 546 km
apogee height: 548 km
right ascension of ascending node: 201.3367°
argument of perigee: 67.3218°
revolutions per day: 15.06395507
mean anomaly at epoch: 26.6202°
orbit number at epoch: 1

The dashed part of the orbit path shows where the satellite is in the earth's shadow,  

DLR